Regional Weather Roundup
Issued by NWS Kansas City/Pleasant Hill, MO

Home | Current Version | Previous Version | Text Only | Print | Product List | Glossary On
Versions: 1 2 3 4 5 6 7 8 9 10 11 12 13 14 15 16 17 18 19 20 21 22 23 24 25 26 27 28 29 30 31 32 33 34 35 36 37 38 39 40 41 42 43 44 45 46 47 48 49 50
000
ASUS43 KEAX 080510
RWREAX

WEATHER ROUNDUP FOR EASTERN KANSAS AND NORTHWEST MISSOURI
NATIONAL WEATHER SERVICE KANSAS CITY/PLEASANT HILL MO
1200 AM CDT WED JUL 08 2015

KSZ040-057-103>105-MOZ028-029-037-043-080600-
...KANSAS CITY METROPOLITAN AREA...

CITY           SKY/WX    TMP DP  RH WIND       PRES   REMARKS
K.C. INTL      DRIZZLE   67  59  75 E8        30.07S
K.C. DOWNTOWN  CLOUDY    69  61  75 E8        30.06S
LEES SUMMIT    LGT RAIN  66  63  90 N3        30.07F
OLATHE - IXD   CLOUDY    64  62  93 NE6       30.08S
OLATHE - OJC   LGT RAIN  63  62  97 NE6       30.06F FOG
LAWRENCE       CLOUDY    66  62  87 CALM      30.07S

$$

MOZ001>008-011>017-020>025-030>033-038>040-044>046-053-054-080600-
...NORTHERN AND CENTRAL MISSOURI...

CITY           SKY/WX    TMP DP  RH WIND       PRES   REMARKS
ST. JOSEPH     CLOUDY    67  58  72 NE6       30.08S
MOSBY          CLOUDY    68  59  73 CALM      30.07S
WARRENSBURG    RAIN      63  63 100 E6        30.07S
WHITEMAN AFB   LGT RAIN  65  63  95 CALM      30.06S FOG
CLINTON        CLOUDY    64  64 100 E7        30.06F FOG
SEDALIA        LGT RAIN  66  63  90 E6        30.07F FOG
WARSAW         NOT AVBL
CHILLICOTHE      N/A     68  59  73 NE3       30.09S
KIRKSVILLE     LGT RAIN  64  60  87 NE3       30.09F

$$

MOZ041-047>049-056>058-063>065-088>090-097-080600-
...EASTERN AND SOUTHERN MISSOURI...

CITY           SKY/WX    TMP DP  RH WIND       PRES   REMARKS
ST. LOUIS INTL CLOUDY    67  63  87 E7        30.08S
SPIRIT OF STL  CLOUDY    66  65  96 E3        30.06F
COLUMBIA       LGT RAIN  65  63  93 E6        30.07F FOG
JEFFERSON CITY LGT RAIN  65  63  93 E5        30.06F FOG
ROLLA          CLOUDY    63  62  97 E8        30.05S FOG
OSAGE BEACH    CLOUDY    64  63  94 NE6       30.05F
SPRINGFIELD    LGT RAIN  67  66  97 NE6       30.03F FOG
BRANSON          N/A     72  72 100 CALM      30.04S
JOPLIN         LGT RAIN  65  65 100 NE7       30.02F
WEST PLAINS    CLOUDY    71  69  93 CALM      30.06R FOG

$$

IAZ060-094-KSZ022-034>040-054-083-096-NEZ052-066-093-080600-
...KANSAS...SOUTHEAST NEBRASKA AND IOWA...

CITY           SKY/WX    TMP DP  RH WIND       PRES   REMARKS
TOPEKA         CLOUDY    66  61  84 CALM      30.07S
MANHATTAN      MOCLDY    63  59  87 CALM      30.06F
EMPORIA        LGT RAIN  63  61  93 NE5       30.07S
CHANUTE        LGT RAIN  64  63  96 NE7       30.03F FOG
WICHITA        LGT RAIN  64  60  87 NE10      30.06S FOG
OMAHA          CLEAR     60  54  80 NW5       30.10S
LINCOLN        CLEAR     58  53  84 N3        30.10F
FALLS CITY     MOCLDY    63  57  81 NE3       30.08S
LAMONI         CLOUDY    62  55  77 NE3       30.10S
DES MOINES     PTCLDY    63  51  65 E5        30.11S

$$




USA.gov is the U.S. government's official web portal to all federal, state and local government web resources and services.